Torna al catalogo

METEOR 2-19

AttivoMeteoPO
NORAD 20670·PAYLOAD·🇷🇺 Russia

Lanciato Jun 27, 1990 da Plesetsk Cosmodrome

Loading…

Prossimi Passaggi (prossime 24 ore)

TLE

AggiornatoSource: Space-Track

Epoca: Sep 14, 2026, 14:58 UTC

1 20670U 90057A   26257.62420017  .00000038  00000-0  20261-4 0  9996
2 20670  82.5470 207.6805 0015634 185.2572 174.8428 13.84901714830014

Traccia METEOR 2-19 in tempo reale con AllMySat

Download on the App Store